WZZ6306 LHBP-LIMJ

Flight info

Callsign WZZ6306
Flight time 1h 17m
Altitude 34000
Route GILEP DCT ZOLKU DCT SUNIS DCT RADLY DCT ABISO DCT RIFEN/N0436F350 DCT KOPER DCT NISIL DCT BEROK/N0441F360 DCT MIVKI/N0350F180 M730 KALMO
Aircraft A321/M-SDE3FGHIRWY/LB1

Departure

Time 2026-04-15 15:34
Airport Budapest Liszt Ferenc International Airport (LHBP)

Arrival

Time 2026-04-15 16:52
Airport Genoa Cristoforo Colombo Airport (LIMJ)
Time Latitude Longitude Altitude Speed Heading
2026-04-15 15:00 47.43511 19.26478 458 ft 0 kts 222°
2026-04-15 15:23 47.43514 19.26482 458 ft 3 kts 222°
2026-04-15 15:23 47.43532 19.26506 458 ft 4 kts 233°
2026-04-15 15:23 47.43539 19.26539 458 ft 4 kts 285°
2026-04-15 15:24 47.43528 19.26573 454 ft 4 kts 310°
2026-04-15 15:24 47.43510 19.26602 456 ft 3 kts 313°
2026-04-15 15:24 47.43507 19.26605 456 ft 0 kts 312°
2026-04-15 15:27 47.43508 19.26604 458 ft 1 kts 312°
2026-04-15 15:27 47.43524 19.26577 458 ft 7 kts 312°
2026-04-15 15:28 47.43571 19.26503 458 ft 12 kts 313°
2026-04-15 15:28 47.43633 19.26403 458 ft 14 kts 313°
2026-04-15 15:28 47.43679 19.26277 457 ft 15 kts 274°
2026-04-15 15:28 47.43675 19.26115 457 ft 16 kts 272°
2026-04-15 15:29 47.43730 19.25981 457 ft 11 kts 312°
2026-04-15 15:29 47.43713 19.25881 457 ft 12 kts 221°
2026-04-15 15:29 47.43648 19.25795 457 ft 13 kts 222°
2026-04-15 15:29 47.43576 19.25699 457 ft 15 kts 222°
2026-04-15 15:30 47.43497 19.25592 457 ft 16 kts 222°
2026-04-15 15:30 47.43411 19.25477 457 ft 17 kts 222°
2026-04-15 15:30 47.43318 19.25353 457 ft 19 kts 222°
2026-04-15 15:30 47.43219 19.25220 457 ft 20 kts 222°
2026-04-15 15:31 47.43151 19.25128 456 ft 8 kts 222°
2026-04-15 15:31 47.43148 19.25124 457 ft 0 kts 222°
2026-04-15 15:32 47.43141 19.25115 457 ft 6 kts 222°
2026-04-15 15:33 47.43083 19.25038 457 ft 9 kts 222°
2026-04-15 15:33 47.43076 19.24979 457 ft 6 kts 312°
2026-04-15 15:33 47.43160 19.24842 456 ft 49 kts 312°
2026-04-15 15:33 47.43568 19.24188 453 ft 121 kts 312°
2026-04-15 15:34 47.44269 19.23058 467 ft 173 kts 314°
2026-04-15 15:34 47.45110 19.21736 1055 ft 178 kts 314°
2026-04-15 15:34 47.45949 19.20381 1818 ft 179 kts 311°
2026-04-15 15:34 47.46785 19.18999 2482 ft 184 kts 311°
2026-04-15 15:35 47.47663 19.17528 2712 ft 203 kts 312°
2026-04-15 15:35 47.48603 19.15815 2848 ft 228 kts 301°
2026-04-15 15:35 47.49202 19.13546 3181 ft 247 kts 281°
2026-04-15 15:35 47.49225 19.10930 3697 ft 262 kts 259°
2026-04-15 15:36 47.48573 19.08412 4499 ft 265 kts 237°
2026-04-15 15:36 47.47318 19.06414 5321 ft 268 kts 214°
2026-04-15 15:36 47.45640 19.05236 6169 ft 269 kts 198°
2026-04-15 15:36 47.43845 19.04393 6981 ft 272 kts 198°
2026-04-15 15:37 47.42023 19.03546 7741 ft 277 kts 198°
2026-04-15 15:37 47.40221 19.02509 8482 ft 281 kts 212°
2026-04-15 15:37 47.38785 19.00569 9212 ft 283 kts 237°
2026-04-15 15:37 47.38026 18.97902 9963 ft 285 kts 261°
2026-04-15 15:38 47.37776 18.94928 10406 ft 302 kts 264°
2026-04-15 15:38 47.37534 18.91735 10631 ft 323 kts 264°
2026-04-15 15:38 47.37277 18.88386 11168 ft 332 kts 264°
2026-04-15 15:38 47.37010 18.84981 11854 ft 336 kts 264°
2026-04-15 15:39 47.36736 18.81540 12565 ft 339 kts 264°
2026-04-15 15:39 47.36455 18.78067 13264 ft 343 kts 264°
2026-04-15 15:39 47.36167 18.74561 13967 ft 346 kts 264°
2026-04-15 15:39 47.35877 18.71031 14593 ft 349 kts 264°
2026-04-15 15:40 47.35584 18.67459 15231 ft 351 kts 264°
2026-04-15 15:40 47.35289 18.63871 15887 ft 354 kts 264°
2026-04-15 15:40 47.34995 18.60307 16527 ft 356 kts 264°
2026-04-15 15:40 47.34696 18.56669 17175 ft 359 kts 264°
2026-04-15 15:41 47.34393 18.53007 17809 ft 362 kts 264°
2026-04-15 15:41 47.34087 18.49316 18445 ft 364 kts 263°
2026-04-15 15:41 47.33778 18.45589 19009 ft 367 kts 263°
2026-04-15 15:41 47.33466 18.41843 19583 ft 369 kts 263°
2026-04-15 15:42 47.33147 18.38077 20179 ft 371 kts 263°
2026-04-15 15:42 47.32826 18.34283 20760 ft 373 kts 263°
2026-04-15 15:42 47.32505 18.30484 21337 ft 375 kts 263°
2026-04-15 15:42 47.32180 18.26654 21918 ft 378 kts 263°
2026-04-15 15:43 47.31852 18.22791 22503 ft 380 kts 263°
2026-04-15 15:43 47.31519 18.18915 23083 ft 382 kts 263°
2026-04-15 15:43 47.31184 18.15015 23635 ft 385 kts 263°
2026-04-15 15:43 47.30847 18.11091 24103 ft 387 kts 263°
2026-04-15 15:44 47.30505 18.07144 24531 ft 390 kts 263°
2026-04-15 15:44 47.30156 18.03161 24962 ft 392 kts 263°
2026-04-15 15:44 47.29804 17.99166 25393 ft 394 kts 263°
2026-04-15 15:44 47.29451 17.95150 25813 ft 396 kts 263°
2026-04-15 15:45 47.29093 17.91113 26246 ft 398 kts 263°
2026-04-15 15:45 47.28734 17.87065 26666 ft 401 kts 263°
2026-04-15 15:45 47.28372 17.82978 27091 ft 403 kts 263°
2026-04-15 15:45 47.28009 17.78888 27499 ft 405 kts 263°
2026-04-15 15:46 47.27642 17.74759 27914 ft 407 kts 263°
2026-04-15 15:46 47.27397 17.72015 28168 ft 408 kts 263°
2026-04-15 15:46 47.27022 17.67860 28567 ft 410 kts 263°
2026-04-15 15:46 47.26645 17.63699 28999 ft 412 kts 263°
2026-04-15 15:47 47.26261 17.59502 29321 ft 416 kts 263°
2026-04-15 15:47 47.25873 17.55279 29666 ft 418 kts 263°
2026-04-15 15:47 47.25480 17.51001 30033 ft 421 kts 263°
2026-04-15 15:47 47.25086 17.46723 30363 ft 423 kts 263°
2026-04-15 15:48 47.24687 17.42432 30645 ft 426 kts 263°
2026-04-15 15:48 47.24282 17.38097 30914 ft 429 kts 263°
2026-04-15 15:48 47.23873 17.33730 31180 ft 432 kts 263°
2026-04-15 15:48 47.23461 17.29339 31444 ft 435 kts 263°
2026-04-15 15:49 47.23045 17.24918 31712 ft 438 kts 263°
2026-04-15 15:49 47.22624 17.20480 32085 ft 438 kts 263°
2026-04-15 15:49 47.22200 17.16041 32410 ft 439 kts 263°
2026-04-15 15:49 47.21775 17.11573 32662 ft 442 kts 263°
2026-04-15 15:50 47.21348 17.07087 32974 ft 444 kts 264°
2026-04-15 15:50 47.20922 17.02633 33308 ft 445 kts 264°
2026-04-15 15:50 47.20486 16.98118 33645 ft 446 kts 264°
2026-04-15 15:50 47.20049 16.93600 33984 ft 447 kts 264°
2026-04-15 15:51 47.19607 16.89076 34172 ft 447 kts 264°
2026-04-15 15:51 47.19166 16.84595 34201 ft 439 kts 264°
2026-04-15 15:51 47.18297 16.75783 34198 ft 434 kts 264°
2026-04-15 15:52 47.17422 16.67002 34204 ft 436 kts 264°
2026-04-15 15:52 47.16540 16.58167 34204 ft 437 kts 264°
2026-04-15 15:53 47.15649 16.49338 34204 ft 437 kts 264°
2026-04-15 15:53 47.14752 16.40505 34209 ft 437 kts 263°
2026-04-15 15:54 47.12858 16.32003 34212 ft 442 kts 244°
2026-04-15 15:54 47.09629 16.24288 34211 ft 444 kts 240°
2026-04-15 15:55 47.06350 16.16610 34207 ft 444 kts 240°
2026-04-15 15:55 47.03069 16.08939 34214 ft 444 kts 240°
2026-04-15 15:56 46.99784 16.01281 34219 ft 444 kts 239°
2026-04-15 15:56 46.96492 15.93635 34218 ft 444 kts 239°
2026-04-15 15:57 46.93191 15.86005 34214 ft 444 kts 239°
2026-04-15 15:57 46.89883 15.78382 34215 ft 443 kts 239°
2026-04-15 15:58 46.86606 15.70834 34223 ft 442 kts 239°
2026-04-15 15:58 46.83286 15.63212 34200 ft 442 kts 239°
2026-04-15 15:59 46.79996 15.55692 34195 ft 443 kts 239°
2026-04-15 15:59 46.76674 15.48110 34196 ft 443 kts 239°
2026-04-15 16:00 46.73344 15.40536 34207 ft 443 kts 239°
2026-04-15 16:00 46.70021 15.32984 34218 ft 443 kts 239°
2026-04-15 16:01 46.66685 15.25435 34217 ft 442 kts 239°
2026-04-15 16:01 46.63349 15.17911 34216 ft 442 kts 238°
2026-04-15 16:02 46.60024 15.10396 34195 ft 442 kts 239°
2026-04-15 16:02 46.56688 15.02871 34188 ft 443 kts 238°
2026-04-15 16:03 46.53340 14.95345 34184 ft 444 kts 238°
2026-04-15 16:03 46.49980 14.87825 34188 ft 444 kts 238°
2026-04-15 16:04 46.46614 14.80312 34186 ft 444 kts 238°
2026-04-15 16:04 46.43245 14.72807 34192 ft 445 kts 238°
2026-04-15 16:05 46.39888 14.65350 34208 ft 444 kts 238°
2026-04-15 16:05 46.36511 14.57881 34197 ft 443 kts 238°
2026-04-15 16:06 46.33131 14.50420 34177 ft 444 kts 238°
2026-04-15 16:06 46.29742 14.42933 34177 ft 446 kts 238°
2026-04-15 16:07 46.26331 14.35447 34191 ft 447 kts 237°
2026-04-15 16:08 46.20763 14.24645 34202 ft 447 kts 233°
2026-04-15 16:08 46.16872 14.17623 34205 ft 447 kts 233°
2026-04-15 16:09 46.13037 14.10585 34207 ft 447 kts 233°
2026-04-15 16:09 46.09245 14.03502 34194 ft 446 kts 234°
2026-04-15 16:10 46.05446 13.96408 34170 ft 448 kts 233°
2026-04-15 16:10 46.01618 13.89313 34161 ft 449 kts 233°
2026-04-15 16:11 45.97767 13.82219 34158 ft 450 kts 233°
2026-04-15 16:11 45.93893 13.75081 34511 ft 454 kts 233°
2026-04-15 16:11 45.91952 13.71503 34817 ft 454 kts 233°
2026-04-15 16:12 45.90030 13.67965 35076 ft 455 kts 233°
2026-04-15 16:12 45.86128 13.60804 35137 ft 455 kts 235°
2026-04-15 16:13 45.83035 13.52976 35140 ft 452 kts 246°
2026-04-15 16:13 45.80248 13.44893 35137 ft 453 kts 246°
2026-04-15 16:14 45.77437 13.36787 35141 ft 454 kts 245°
2026-04-15 16:14 45.74613 13.28703 35141 ft 454 kts 245°
2026-04-15 16:15 45.71786 13.20621 35142 ft 454 kts 245°
2026-04-15 16:15 45.68949 13.12531 35151 ft 454 kts 245°
2026-04-15 16:16 45.66114 13.04456 35156 ft 455 kts 245°
2026-04-15 16:16 45.63281 12.96435 35134 ft 455 kts 245°
2026-04-15 16:17 45.60417 12.88353 35127 ft 457 kts 245°
2026-04-15 16:17 45.57542 12.80254 35129 ft 458 kts 245°
2026-04-15 16:18 45.54668 12.72141 35138 ft 458 kts 245°
2026-04-15 16:18 45.51782 12.64042 35153 ft 459 kts 245°
2026-04-15 16:19 45.48874 12.55946 35155 ft 459 kts 245°
2026-04-15 16:19 45.45961 12.47854 35127 ft 459 kts 246°
2026-04-15 16:20 45.43045 12.39742 35128 ft 460 kts 245°
2026-04-15 16:20 45.40116 12.31636 35141 ft 461 kts 245°
2026-04-15 16:21 45.37172 12.23515 35141 ft 462 kts 245°
2026-04-15 16:21 45.34216 12.15403 35143 ft 462 kts 245°
2026-04-15 16:22 45.31276 12.07337 35146 ft 462 kts 245°
2026-04-15 16:22 45.28313 11.99238 35118 ft 463 kts 246°
2026-04-15 16:23 45.25341 11.91096 35116 ft 465 kts 246°
2026-04-15 16:23 45.22354 11.82960 35116 ft 467 kts 246°
2026-04-15 16:24 45.19332 11.74776 35126 ft 468 kts 246°
2026-04-15 16:24 45.16305 11.66617 35144 ft 468 kts 245°
2026-04-15 16:25 45.13263 11.58479 35159 ft 467 kts 245°
2026-04-15 16:25 45.10157 11.50380 35131 ft 469 kts 245°
2026-04-15 16:26 45.07021 11.42264 35124 ft 470 kts 245°
2026-04-15 16:26 45.03891 11.34139 35131 ft 471 kts 245°
2026-04-15 16:27 45.00757 11.26011 35140 ft 471 kts 244°
2026-04-15 16:27 44.96807 11.18602 35145 ft 477 kts 225°
2026-04-15 16:28 44.91559 11.12793 35147 ft 479 kts 218°
2026-04-15 16:28 44.86206 11.07174 35149 ft 480 kts 218°
2026-04-15 16:29 44.80855 11.01536 35126 ft 482 kts 218°
2026-04-15 16:29 44.75495 10.95919 35103 ft 485 kts 218°
2026-04-15 16:29 44.72781 10.93087 34500 ft 490 kts 218°
2026-04-15 16:30 44.70033 10.90226 33746 ft 493 kts 218°
2026-04-15 16:30 44.67278 10.87363 33172 ft 490 kts 218°
2026-04-15 16:30 44.64559 10.84540 32598 ft 481 kts 217°
2026-04-15 16:30 44.61893 10.81773 31916 ft 473 kts 217°
2026-04-15 16:31 44.59266 10.79050 31233 ft 465 kts 217°
2026-04-15 16:31 44.56684 10.76375 30558 ft 457 kts 217°
2026-04-15 16:31 44.54153 10.73760 29843 ft 449 kts 217°
2026-04-15 16:31 44.51656 10.71179 29077 ft 441 kts 217°
2026-04-15 16:32 44.49206 10.68648 28217 ft 432 kts 217°
2026-04-15 16:32 44.46820 10.66187 27406 ft 421 kts 217°
2026-04-15 16:32 44.44489 10.63784 26553 ft 412 kts 217°
2026-04-15 16:32 44.42202 10.61427 25699 ft 404 kts 217°
2026-04-15 16:33 44.39968 10.59129 24902 ft 397 kts 218°
2026-04-15 16:33 44.38495 10.57615 24381 ft 393 kts 219°
2026-04-15 16:33 44.35604 10.54647 23283 ft 385 kts 217°
2026-04-15 16:33 44.34154 10.53158 22684 ft 381 kts 217°
2026-04-15 16:34 44.32027 10.50976 22117 ft 378 kts 217°
2026-04-15 16:34 44.29923 10.48822 21683 ft 374 kts 217°
2026-04-15 16:34 44.27158 10.45994 21081 ft 369 kts 218°
2026-04-15 16:34 44.25761 10.44567 20785 ft 367 kts 217°
2026-04-15 16:35 44.23714 10.42477 20348 ft 363 kts 217°
2026-04-15 16:35 44.21693 10.40411 19898 ft 361 kts 216°
2026-04-15 16:35 44.19837 10.38089 19464 ft 356 kts 231°
2026-04-15 16:35 44.18550 10.35168 19036 ft 351 kts 249°
2026-04-15 16:36 44.17928 10.31919 18623 ft 346 kts 266°
2026-04-15 16:36 44.17987 10.28643 18164 ft 341 kts 281°
2026-04-15 16:36 44.18594 10.25435 17723 ft 337 kts 287°
2026-04-15 16:36 44.19245 10.22319 17301 ft 334 kts 287°
2026-04-15 16:37 44.19894 10.19218 16894 ft 331 kts 287°
2026-04-15 16:37 44.20525 10.16195 16499 ft 328 kts 287°
2026-04-15 16:37 44.21160 10.13142 16096 ft 326 kts 287°
2026-04-15 16:37 44.21784 10.10125 15698 ft 323 kts 287°
2026-04-15 16:38 44.22406 10.07124 15305 ft 321 kts 287°
2026-04-15 16:38 44.23024 10.04132 14921 ft 319 kts 287°
2026-04-15 16:38 44.23637 10.01166 14534 ft 318 kts 287°
2026-04-15 16:38 44.24249 9.98209 14148 ft 317 kts 287°
2026-04-15 16:39 44.24858 9.95261 13755 ft 316 kts 287°
2026-04-15 16:39 44.25462 9.92318 13360 ft 314 kts 287°
2026-04-15 16:39 44.26057 9.89409 12983 ft 311 kts 287°
2026-04-15 16:39 44.26651 9.86511 12625 ft 309 kts 287°
2026-04-15 16:40 44.27242 9.83630 12254 ft 307 kts 287°
2026-04-15 16:40 44.27827 9.80773 11886 ft 306 kts 287°
2026-04-15 16:40 44.28408 9.77938 11519 ft 303 kts 287°
2026-04-15 16:40 44.28987 9.75111 11154 ft 303 kts 287°
2026-04-15 16:41 44.29557 9.72322 10795 ft 302 kts 288°
2026-04-15 16:41 44.30125 9.69515 10440 ft 301 kts 288°
2026-04-15 16:41 44.30691 9.66714 10082 ft 299 kts 287°
2026-04-15 16:41 44.31257 9.63920 9686 ft 299 kts 287°
2026-04-15 16:42 44.31794 9.61129 9319 ft 297 kts 282°
2026-04-15 16:42 44.31943 9.58264 8951 ft 296 kts 267°
2026-04-15 16:42 44.31629 9.55427 8538 ft 296 kts 258°
2026-04-15 16:42 44.31227 9.52603 8168 ft 295 kts 258°
2026-04-15 16:43 44.30832 9.49809 7794 ft 292 kts 259°
2026-04-15 16:43 44.30444 9.47028 7431 ft 291 kts 258°
2026-04-15 16:43 44.30056 9.44260 7090 ft 289 kts 259°
2026-04-15 16:43 44.29672 9.41511 6711 ft 289 kts 261°
2026-04-15 16:44 44.29532 9.38730 6363 ft 286 kts 274°
2026-04-15 16:44 44.29867 9.36020 6042 ft 281 kts 288°
2026-04-15 16:44 44.30455 9.33400 5648 ft 281 kts 289°
2026-04-15 16:44 44.31035 9.30807 5288 ft 280 kts 289°
2026-04-15 16:45 44.31605 9.28240 5128 ft 271 kts 289°
2026-04-15 16:45 44.32148 9.25781 5026 ft 260 kts 289°
2026-04-15 16:45 44.32666 9.23419 4907 ft 249 kts 289°
2026-04-15 16:45 44.33161 9.21154 4799 ft 239 kts 289°
2026-04-15 16:46 44.33641 9.18960 4687 ft 235 kts 289°
2026-04-15 16:46 44.34119 9.16786 4473 ft 234 kts 289°
2026-04-15 16:46 44.34597 9.14615 4158 ft 233 kts 289°
2026-04-15 16:46 44.35034 9.12442 3996 ft 233 kts 283°
2026-04-15 16:47 44.35325 9.10247 3793 ft 225 kts 285°
2026-04-15 16:47 44.35723 9.08185 3479 ft 212 kts 290°
2026-04-15 16:47 44.36141 9.06336 3194 ft 190 kts 292°
2026-04-15 16:47 44.36518 9.04698 2945 ft 165 kts 292°
2026-04-15 16:48 44.36851 9.03253 2731 ft 150 kts 292°
2026-04-15 16:48 44.37167 9.01890 2510 ft 144 kts 291°
2026-04-15 16:48 44.37471 9.00570 2319 ft 142 kts 294°
2026-04-15 16:48 44.37772 8.99266 2125 ft 140 kts 294°
2026-04-15 16:49 44.38070 8.97969 1927 ft 140 kts 293°
2026-04-15 16:49 44.38368 8.96672 1728 ft 140 kts 291°
2026-04-15 16:49 44.38665 8.95378 1528 ft 140 kts 290°
2026-04-15 16:49 44.38963 8.94079 1320 ft 140 kts 291°
2026-04-15 16:50 44.39258 8.92795 1131 ft 139 kts 291°
2026-04-15 16:50 44.39581 8.91537 955 ft 136 kts 295°
2026-04-15 16:50 44.39911 8.90289 781 ft 137 kts 291°
2026-04-15 16:50 44.40214 8.89034 596 ft 137 kts 291°
2026-04-15 16:51 44.40476 8.87774 332 ft 135 kts 288°
2026-04-15 16:51 44.40734 8.86492 205 ft 137 kts 289°
2026-04-15 16:51 44.40989 8.85201 45 ft 137 kts 289°
2026-04-15 16:51 44.41219 8.84065 21 ft 95 kts 285°
2026-04-15 16:52 44.41321 8.83547 21 ft 34 kts 284°
2026-04-15 16:52 44.41378 8.83257 23 ft 24 kts 287°
2026-04-15 16:52 44.41454 8.83114 24 ft 10 kts 317°
2026-04-15 16:52 44.41520 8.83094 28 ft 11 kts 23°
2026-04-15 16:53 44.41545 8.83181 25 ft 11 kts 99°
2026-04-15 16:53 44.41525 8.83292 26 ft 13 kts 105°
2026-04-15 16:53 44.41497 8.83430 23 ft 15 kts 105°
2026-04-15 16:53 44.41468 8.83583 23 ft 17 kts 105°
2026-04-15 16:54 44.41442 8.83713 22 ft 10 kts 105°
2026-04-15 16:54 44.41422 8.83817 20 ft 12 kts 105°
2026-04-15 16:54 44.41399 8.83934 21 ft 13 kts 105°
2026-04-15 16:54 44.41372 8.84074 17 ft 17 kts 105°
2026-04-15 16:55 44.41338 8.84243 16 ft 19 kts 105°
2026-04-15 16:55 44.41313 8.84373 19 ft 10 kts 104°
2026-04-15 16:55 44.41336 8.84443 20 ft 7 kts 50°
2026-04-15 16:55 44.41370 8.84508 19 ft 10 kts 53°
2026-04-15 16:56 44.41410 8.84589 18 ft 10 kts 66°
2026-04-15 16:56 44.41402 8.84690 18 ft 12 kts 105°
2026-04-15 16:56 44.41380 8.84804 18 ft 13 kts 105°
2026-04-15 16:56 44.41354 8.84942 21 ft 15 kts 104°
2026-04-15 16:57 44.41327 8.85095 19 ft 17 kts 105°
2026-04-15 16:57 44.41308 8.85194 18 ft 8 kts 99°
2026-04-15 16:57 44.41337 8.85216 18 ft 4 kts 14°
2026-04-15 16:57 44.41359 8.85224 18 ft 2 kts 15°
2026-04-15 16:58 44.41364 8.85226 18 ft 0 kts 15°